Weather History for Ada, OK

Change the Weather History Date:

Wednesday, June 26, 2013

  Actual Average Record
Temperature  
Mean Temperature 82 °F -  
Max Temperature 93 °F 89 °F 103 °F (1972)
Min Temperature 71 °F 68 °F 51 °F (1974)
Cooling Degree Days 17    
Growing Degree Days 32 (Base 50)    
Moisture  
Dew Point 72 °F    
Average Humidity 73    
Maximum Humidity 89    
Minimum Humidity 59    
Precipitation  
Precipitation 0.00 in - - ()
Sea Level Pressure  
Sea Level Pressure 29.90 in    
Wind  
Wind Speed 10 mph (SSE)    
Max Wind Speed 17 mph    
Max Gust Speed 24 mph    
Visibility 10 miles    
Events      
Averages and records for this station are not official NWS values.
T = Trace of Precipitation, MM = Missing Value Source: NWS Daily Summary

Daily Weather History Graph

Daily Weather History Graph

Search for Another Location

Airport:

Trip Planner

Search our weather history database for the weather conditions in past years. The results will help you decide how hot, cold, wet, or windy it might be!

Date:

Astronomy

Jun. 26, 2013 Rise Set
Actual Time 6:15 AM CDT 8:44 PM CDT
Civil Twilight 5:45 AM CDT 9:13 PM CDT
Nautical Twilight 5:08 AM CDT 9:50 PM CDT
Astronomical Twilight 4:28 AM CDT 10:30 PM CDT
Moon 11:18 PM CDT (6/26) 9:58 AM CDT (6/26)
Length of Visible Light 15h 28m
Length of Day
14h 28m
Waning Gibbous, 85% of the Moon is Illuminated
Jun 26
Waning Gibbous
Jun 29
Last Quarter
Jul 8
New
Jul 15
First Quarter
Jul 22
Full

Hourly Weather History & Observations

Time (CDT) Temp. Heat Index Dew Point Humidity Pressure Visibility Wind Dir Wind Speed Gust Speed Precip Events Conditions
12:15 AM 77.0 °F - 69.8 °F 78% 29.85 in 10.0 mi SSE 12.7 mph - N/A   Clear
12:35 AM 77.0 °F - 69.8 °F 78% 29.85 in 10.0 mi SSE 11.5 mph - N/A   Clear
12:55 AM 77.0 °F - 69.8 °F 78% 29.85 in 10.0 mi SSE 9.2 mph - N/A   Clear
1:15 AM 75.2 °F - 69.8 °F 83% 29.85 in 10.0 mi SSE 10.4 mph - N/A   Clear
1:35 AM 77.0 °F - 69.8 °F 78% 29.84 in 10.0 mi SSE 10.4 mph - N/A   Clear
1:55 AM 75.2 °F - 69.8 °F 83% 29.84 in 10.0 mi SSE 9.2 mph - N/A   Clear
2:15 AM 75.2 °F - 69.8 °F 83% 29.84 in 10.0 mi SSE 9.2 mph - N/A   Clear
2:35 AM 73.4 °F - 69.8 °F 88% 29.83 in 10.0 mi SSE 10.4 mph - N/A   Clear
2:55 AM 73.4 °F - 69.8 °F 88% 29.83 in 10.0 mi SSE 10.4 mph - N/A   Clear
3:15 AM 73.4 °F - 68.0 °F 83% 29.84 in 10.0 mi SSE 8.1 mph - N/A   Clear
3:35 AM 73.4 °F - 68.0 °F 83% 29.84 in 10.0 mi SSE 8.1 mph - N/A   Clear
3:55 AM 73.4 °F - 68.0 °F 83% 29.84 in 10.0 mi SSE 6.9 mph - N/A   Clear
4:15 AM 73.4 °F - 68.0 °F 83% 29.85 in 10.0 mi SSE 8.1 mph - N/A   Clear
4:35 AM 73.4 °F - 68.0 °F 83% 29.85 in 10.0 mi SSE 8.1 mph - N/A   Clear
4:55 AM 73.4 °F - 68.0 °F 83% 29.85 in 10.0 mi South 9.2 mph - N/A   Clear
5:15 AM 73.4 °F - 68.0 °F 83% 29.86 in 10.0 mi South 8.1 mph - N/A   Clear
5:35 AM 71.6 °F - 68.0 °F 88% 29.87 in 10.0 mi South 9.2 mph - N/A   Clear
5:55 AM 71.6 °F - 68.0 °F 88% 29.87 in 10.0 mi South 8.1 mph - N/A   Clear
6:15 AM 71.6 °F - 68.0 °F 88% 29.88 in 10.0 mi South 5.8 mph - N/A   Clear
6:35 AM 71.6 °F - 68.0 °F 88% 29.89 in 10.0 mi South 8.1 mph - N/A   Clear
6:55 AM 71.6 °F - 68.0 °F 88% 29.90 in 10.0 mi SSE 6.9 mph - N/A   Clear
7:15 AM 71.6 °F - 68.0 °F 88% 29.90 in 10.0 mi SSE 9.2 mph - N/A   Clear
7:35 AM 73.4 °F - 68.0 °F 83% 29.91 in 10.0 mi South 9.2 mph - N/A   Clear
7:55 AM 75.2 °F - 69.8 °F 83% 29.92 in 10.0 mi South 11.5 mph - N/A   Clear
8:15 AM 77.0 °F - 69.8 °F 78% 29.92 in 10.0 mi South 9.2 mph - N/A   Clear
8:35 AM 78.8 °F - 71.6 °F 78% 29.93 in 10.0 mi South 9.2 mph - N/A   Clear
8:55 AM 78.8 °F - 71.6 °F 78% 29.93 in 10.0 mi South 12.7 mph - N/A   Clear
9:15 AM 80.6 °F 84.6 °F 71.6 °F 74% 29.93 in 10.0 mi SSW 12.7 mph 17.3 mph N/A   Clear
9:55 AM 82.4 °F 87.2 °F 71.6 °F 70% 29.94 in 10.0 mi South 15.0 mph 20.7 mph N/A   Clear
10:15 AM 84.2 °F 89.6 °F 71.6 °F 66% 29.93 in 10.0 mi South 16.1 mph 21.9 mph N/A   Clear
10:35 AM 86.0 °F 91.8 °F 71.6 °F 62% 29.93 in 10.0 mi SSW 17.3 mph 24.2 mph N/A   Clear
10:55 AM 86.0 °F 91.8 °F 71.6 °F 62% 29.94 in 10.0 mi South 12.7 mph - N/A   Clear
11:15 AM 86.0 °F 93.4 °F 73.4 °F 66% 29.94 in 10.0 mi SSW 13.8 mph 20.7 mph N/A   Clear
11:35 AM 87.8 °F 95.6 °F 73.4 °F 62% 29.94 in 10.0 mi South 15.0 mph - N/A   Clear
11:55 AM 87.8 °F 95.6 °F 73.4 °F 62% 29.94 in 10.0 mi SSW 11.5 mph 18.4 mph N/A   Clear
12:15 PM 87.8 °F 95.6 °F 73.4 °F 62% 29.94 in 10.0 mi South 15.0 mph 19.6 mph N/A   Clear
12:35 PM 89.6 °F 98.2 °F 73.4 °F 59% 29.94 in 10.0 mi South 11.5 mph 16.1 mph N/A   Clear
12:55 PM 89.6 °F 98.2 °F 73.4 °F 59% 29.94 in 10.0 mi South 11.5 mph 20.7 mph N/A   Clear
1:15 PM 89.6 °F 99.8 °F 75.2 °F 62% 29.94 in 10.0 mi South 13.8 mph 17.3 mph N/A   Clear
1:35 PM 89.6 °F 99.8 °F 75.2 °F 62% 29.93 in 10.0 mi South 13.8 mph 18.4 mph N/A   Clear
1:55 PM 91.4 °F 102.5 °F 75.2 °F 59% 29.93 in 10.0 mi South 10.4 mph - N/A   Clear
2:15 PM 91.4 °F 105.1 °F 77.0 °F 63% 29.92 in 10.0 mi South 16.1 mph 19.6 mph N/A   Clear
2:35 PM 91.4 °F 102.5 °F 75.2 °F 59% 29.92 in 10.0 mi SSE 15.0 mph 18.4 mph N/A   Clear
2:55 PM 91.4 °F 102.5 °F 75.2 °F 59% 29.91 in 10.0 mi South 11.5 mph 20.7 mph N/A   Clear
3:15 PM 91.4 °F 102.5 °F 75.2 °F 59% 29.91 in 10.0 mi SSW 12.7 mph 18.4 mph N/A   Clear
3:35 PM 93.2 °F 107.2 °F 77.0 °F 59% 29.91 in 10.0 mi SSE 13.8 mph - N/A   Clear
3:55 PM 93.2 °F 107.2 °F 77.0 °F 59% 29.90 in 10.0 mi SSE 12.7 mph 18.4 mph N/A   Clear
4:15 PM 93.2 °F 107.2 °F 77.0 °F 59% 29.90 in 10.0 mi South 13.8 mph 19.6 mph N/A   Clear
4:35 PM 93.2 °F 107.2 °F 77.0 °F 59% 29.89 in 10.0 mi SSE 13.8 mph 17.3 mph N/A   Clear
4:55 PM 93.2 °F 107.2 °F 77.0 °F 59% 29.89 in 10.0 mi South 11.5 mph - N/A   Clear
5:15 PM 93.2 °F 107.2 °F 77.0 °F 59% 29.89 in 10.0 mi SSE 11.5 mph 16.1 mph N/A   Clear
5:35 PM 93.2 °F 107.2 °F 77.0 °F 59% 29.89 in 10.0 mi SSE 11.5 mph - N/A   Clear
5:55 PM 91.4 °F 105.1 °F 77.0 °F 63% 29.88 in 10.0 mi SSE 11.5 mph - N/A   Clear
6:15 PM 91.4 °F 105.1 °F 77.0 °F 63% 29.88 in 10.0 mi South 12.7 mph 17.3 mph N/A   Clear
6:35 PM 91.4 °F 105.1 °F 77.0 °F 63% 29.89 in 10.0 mi SSE 10.4 mph - N/A   Clear
6:55 PM 91.4 °F 105.1 °F 77.0 °F 63% 29.89 in 10.0 mi SSE 9.2 mph - N/A   Clear
7:15 PM 89.6 °F 102.2 °F 77.0 °F 66% 29.89 in 10.0 mi South 9.2 mph - N/A   Clear
7:35 PM 89.6 °F 99.8 °F 75.2 °F 62% 29.89 in 10.0 mi SSE 11.5 mph - N/A   Clear
7:55 PM 87.8 °F 97.6 °F 75.2 °F 66% 29.89 in 10.0 mi SSE 5.8 mph - N/A   Clear
8:15 PM 86.0 °F 93.4 °F 73.4 °F 66% 29.89 in 10.0 mi SSE 6.9 mph - N/A   Clear
8:35 PM 86.0 °F 93.4 °F 73.4 °F 66% 29.90 in 10.0 mi SSE 3.5 mph - N/A   Clear
8:55 PM 82.4 °F 88.2 °F 73.4 °F 74% 29.90 in 10.0 mi SE 5.8 mph - N/A   Clear
9:15 PM 80.6 °F 84.6 °F 71.6 °F 74% 29.91 in 10.0 mi ESE 4.6 mph - N/A   Clear
9:35 PM 80.6 °F 84.6 °F 71.6 °F 74% 29.91 in 10.0 mi ESE 4.6 mph - N/A   Clear
9:55 PM 78.8 °F - 73.4 °F 83% 29.92 in 10.0 mi SE 5.8 mph - N/A   Clear
10:15 PM 78.8 °F - 71.6 °F 78% 29.93 in 10.0 mi ESE 3.5 mph - N/A   Clear
10:35 PM 77.0 °F - 71.6 °F 83% 29.93 in 10.0 mi SE 3.5 mph - N/A   Clear
10:55 PM 77.0 °F - 71.6 °F 83% 29.94 in 10.0 mi SE 3.5 mph - N/A   Clear
11:15 PM 77.0 °F - 73.4 °F 89% 29.93 in 10.0 mi SSE 5.8 mph - N/A   Clear
11:35 PM 77.0 °F - 73.4 °F 89% 29.94 in 10.0 mi SE 5.8 mph - N/A   Clear